TimeEST,TemperatureF,Dew PointF,Humidity,Sea Level PressureIn,VisibilityMPH,Wind Direction,Wind SpeedMPH,Gust SpeedMPH,PrecipitationIn,Events,Conditions,WindDirDegrees,DateUTC
12:55 AM,36.9,33.3,87,30.25,10.0,Calm,Calm,-,N/A,,Partly Cloudy,0,2012-12-07 05:55:00
1:55 AM,35.4,33.3,92,30.24,10.0,Calm,Calm,-,N/A,,Clear,0,2012-12-07 06:55:00
2:55 AM,36.1,34.2,93,30.23,10.0,Calm,Calm,-,N/A,,Clear,0,2012-12-07 07:55:00
3:55 AM,36.9,34.2,90,30.21,10.0,Calm,Calm,-,N/A,,Scattered Clouds,0,2012-12-07 08:55:00
4:55 AM,39.9,36.7,88,30.20,10.0,Calm,Calm,-,N/A,,Overcast,0,2012-12-07 09:55:00
5:55 AM,41.2,38.5,90,30.20,10.0,Calm,Calm,-,N/A,,Overcast,0,2012-12-07 10:55:00
6:55 AM,41.9,39.2,90,30.20,10.0,Calm,Calm,-,N/A,,Overcast,0,2012-12-07 11:55:00
7:25 AM,42.8,39.2,87,30.20,10.0,Calm,Calm,-,N/A,,Overcast,0,2012-12-07 12:25:00
7:55 AM,43.3,39.7,87,30.20,10.0,Calm,Calm,-,N/A,,Overcast,0,2012-12-07 12:55:00
8:18 AM,44.6,41.0,87,30.19,10.0,Calm,Calm,-,N/A,,Overcast,0,2012-12-07 13:18:00
8:55 AM,45.1,41.7,88,30.19,10.0,Calm,Calm,-,N/A,,Overcast,0,2012-12-07 13:55:00
9:55 AM,48.4,43.7,84,30.17,10.0,ESE,6.9,-,N/A,,Mostly Cloudy,120,2012-12-07 14:55:00
10:55 AM,50.2,44.8,82,30.17,10.0,WNW,5.8,-,N/A,,Mostly Cloudy,300,2012-12-07 15:55:00
11:55 AM,54.7,46.0,73,30.14,10.0,NNW,5.8,-,N/A,,Scattered Clouds,330,2012-12-07 16:55:00
12:55 PM,56.5,46.8,70,30.10,10.0,Calm,Calm,-,N/A,,Scattered Clouds,0,2012-12-07 17:55:00
1:55 PM,56.8,48.0,72,30.08,10.0,Calm,Calm,-,N/A,,Mostly Cloudy,0,2012-12-07 18:55:00
2:55 PM,58.5,48.6,70,30.07,10.0,SE,3.5,-,N/A,,Overcast,130,2012-12-07 19:55:00
3:55 PM,57.0,48.7,74,30.06,10.0,Calm,Calm,-,N/A,,Overcast,0,2012-12-07 20:55:00
4:55 PM,55.4,48.7,78,30.06,10.0,SE,3.5,-,N/A,,Mostly Cloudy,130,2012-12-07 21:55:00
4:56 PM,55.4,48.2,77,30.06,10.0,ESE,3.5,-,N/A,,Light Drizzle,120,2012-12-07 21:56:00
5:10 PM,55.4,48.2,77,30.06,10.0,ESE,3.5,-,N/A,,Mostly Cloudy,110,2012-12-07 22:10:00
5:54 PM,55.4,48.2,77,30.05,10.0,Calm,Calm,-,N/A,,Overcast,0,2012-12-07 22:54:00
5:55 PM,55.0,48.7,79,30.05,10.0,Calm,Calm,-,0.00,,Overcast,0,2012-12-07 22:55:00
5:56 PM,55.4,48.2,77,30.05,10.0,Calm,Calm,-,N/A,,Overcast,0,2012-12-07 22:56:00
6:55 PM,53.6,48.4,82,30.04,10.0,Calm,Calm,-,N/A,,Mostly Cloudy,0,2012-12-07 23:55:00
7:55 PM,53.4,49.3,86,30.02,10.0,SE,4.6,-,N/A,,Mostly Cloudy,130,2012-12-08 00:55:00
8:55 PM,56.5,52.3,86,30.01,10.0,SSE,8.1,-,N/A,,Overcast,150,2012-12-08 01:55:00
9:11 PM,57.2,53.6,88,30.01,10.0,SSE,6.9,-,N/A,,Overcast,160,2012-12-08 02:11:00
9:12 PM,57.2,53.6,88,30.01,10.0,SSE,8.1,-,N/A,,Overcast,160,2012-12-08 02:12:00
9:30 PM,57.2,53.6,88,30.00,10.0,SSE,5.8,-,N/A,,Overcast,150,2012-12-08 02:30:00
9:39 PM,57.2,53.6,88,30.00,10.0,SSE,4.6,-,N/A,,Overcast,150,2012-12-08 02:39:00
9:49 PM,57.2,53.6,88,30.00,10.0,SSE,6.9,-,N/A,,Overcast,150,2012-12-08 02:49:00
9:55 PM,57.9,53.8,86,30.00,10.0,SSE,6.9,-,N/A,,Overcast,150,2012-12-08 02:55:00
9:57 PM,57.2,53.6,88,30.00,10.0,SSE,5.8,-,N/A,,Overcast,160,2012-12-08 02:57:00
10:24 PM,57.2,53.6,88,30.00,10.0,South,5.8,-,N/A,,Overcast,170,2012-12-08 03:24:00
10:26 PM,57.2,53.6,88,30.00,10.0,South,5.8,-,N/A,,Overcast,170,2012-12-08 03:26:00
10:27 PM,57.2,53.6,88,30.00,10.0,South,5.8,-,N/A,,Overcast,180,2012-12-08 03:27:00
10:45 PM,57.2,53.6,88,30.00,10.0,Calm,Calm,-,N/A,,Overcast,0,2012-12-08 03:45:00
10:55 PM,56.5,52.9,88,30.00,10.0,Calm,Calm,-,N/A,,Overcast,0,2012-12-08 03:55:00
11:01 PM,55.4,51.8,88,30.00,10.0,West,3.5,-,N/A,,Overcast,260,2012-12-08 04:01:00
11:43 PM,55.4,51.8,88,29.99,10.0,Calm,Calm,-,N/A,,Light Drizzle,0,2012-12-08 04:43:00
11:55 PM,54.0,51.3,91,29.98,7.0,Calm,Calm,-,0.00,,Light Drizzle,0,2012-12-08 04:55:00